, SD

(GMT )
Rapid City

Weather History for KRAP - December, 2011

Change the Weather History Date:

Friday, December 16, 2011

  Actual Average Record
Temperature  
Mean Temperature 31 °F 24 °F  
Max Temperature 45 °F 36 °F 64 °F (1980)
Min Temperature 16 °F 12 °F -20 °F (1964)
Degree Days  
Heating Degree Days 34 41  
Month to date heating degree days 659 629  
Since 1 July heating degree days 2201 2304  
Cooling Degree Days 0 0  
Month to date cooling degree days 0 0  
Year to date cooling degree days 699 636  
Moisture  
Dew Point 19 °F    
Average Humidity 62    
Maximum Humidity 84    
Minimum Humidity 39    
Precipitation  
Precipitation 0.00 in 0.01 in 0.20 in (1993)
Month to date precipitation 0.09 0.20  
Year to date precipitation 19.22 16.07  
Snow  
Snow 0.00 in 0.20 in 2.70 in (1993)
Month to date snowfall 2.1 2.9  
Since 1 July snowfall 16.7 10.7  
Snow Depth 0.00 in    
Sea Level Pressure  
Sea Level Pressure 30.33 in    
Wind  
Wind Speed 5 mph (NW)    
Max Wind Speed 15 mph    
Max Gust Speed 17 mph    
Visibility 10 miles    
Events      
T = Trace of Precipitation, MM = Missing Value Source: NWS Daily Summary

Daily Weather History Graph

Daily Weather History Graph

Search for Another Location

Airport or City:

Trip Planner

Search our weather history database for the weather conditions in past years. The results will help you decide how hot, cold, wet, or windy it might be!

Date:

Astronomy

Dec. 16, 2011 Rise Set
Actual Time 7:20 AM MST 4:14 PM MST
Civil Twilight 6:47 AM MST 4:47 PM MST
Nautical Twilight 6:11 AM MST 5:24 PM MST
Astronomical Twilight 5:35 AM MST 5:59 PM MST
Moon 11:03 PM MST (12/16) 10:56 AM MST (12/16)
Length of Visible Light 10h 00m
Length of Day
8h 54m
Waning Gibbous, 64% of the Moon is Illuminated
Dec 16
Waning Gibbous
Dec 17
Last Quarter
Dec 24
New
Dec 31
First Quarter
Jan 9
Full

Hourly Weather History & Observations

Time (MST) Temp. Windchill Dew Point Humidity Pressure Visibility Wind Dir Wind Speed Gust Speed Precip Events Conditions
12:52 AM 19.0 °F 12.3 °F 12.9 °F 77% 30.26 in 10.0 mi NNW 4.6 mph - N/A   Clear
1:52 AM 27.0 °F 16.1 °F 18.0 °F 69% 30.26 in 10.0 mi NNW 12.7 mph - N/A   Clear
2:52 AM 27.0 °F 18.7 °F 18.0 °F 69% 30.25 in 10.0 mi North 8.1 mph - N/A   Clear
3:52 AM 25.0 °F 15.5 °F 17.1 °F 72% 30.27 in 10.0 mi NW 9.2 mph - N/A   Clear
4:52 AM 26.6 °F 16.8 °F 19.4 °F 74% 30.18 in 10.0 mi NW 10.4 mph - N/A   Clear
5:52 AM 27.0 °F 18.7 °F 19.0 °F 72% 30.34 in 10.0 mi WNW 8.1 mph - N/A   Clear
6:52 AM 21.0 °F - 17.1 °F 85% 30.35 in 10.0 mi Calm Calm - N/A   Clear
7:52 AM 24.1 °F 18.2 °F 18.0 °F 77% 30.36 in 10.0 mi NW 4.6 mph - N/A   Clear
8:52 AM 34.0 °F - 23.0 °F 64% 30.35 in 10.0 mi Calm Calm - N/A   Clear
9:52 AM 35.1 °F - 21.9 °F 59% 30.37 in 10.0 mi Calm Calm - N/A   Clear
10:52 AM 41.0 °F - 21.9 °F 47% 30.37 in 10.0 mi Calm Calm - N/A   Clear
11:52 AM 43.0 °F 41.3 °F 21.0 °F 42% 30.35 in 10.0 mi North 3.5 mph - N/A   Clear
12:52 PM 43.0 °F 39.5 °F 19.9 °F 40% 30.32 in 10.0 mi North 5.8 mph - N/A   Clear
1:52 PM 43.0 °F 36.4 °F 21.0 °F 42% 30.30 in 10.0 mi NNW 12.7 mph - N/A   Overcast
2:52 PM 39.0 °F 34.0 °F 21.0 °F 49% 30.30 in 10.0 mi North 6.9 mph - N/A   Partly Cloudy
3:52 PM 37.9 °F - 19.9 °F 48% 30.32 in 10.0 mi Calm Calm - N/A   Clear
4:52 PM 32.0 °F 24.8 °F 19.0 °F 59% 30.35 in 10.0 mi NW 8.1 mph - N/A   Clear
5:52 PM 32.0 °F - 19.0 °F 59% 30.35 in 10.0 mi Calm Calm - N/A   Clear
6:52 PM 25.0 °F 20.7 °F 17.1 °F 72% 30.40 in 10.0 mi West 3.5 mph - N/A   Clear
7:52 PM 25.0 °F 19.3 °F 17.1 °F 72% 30.38 in 10.0 mi West 4.6 mph - N/A   Clear
8:52 PM 27.0 °F 23.0 °F 18.0 °F 69% 30.35 in 10.0 mi WNW 3.5 mph - N/A   Clear
9:52 PM 23.0 °F 17.0 °F 16.0 °F 74% 30.36 in 10.0 mi WNW 4.6 mph - N/A   Clear
10:52 PM 24.1 °F 19.7 °F 16.0 °F 71% 30.35 in 10.0 mi WNW 3.5 mph - N/A   Clear
11:52 PM 24.1 °F 19.7 °F 16.0 °F 71% 30.33 in 10.0 mi West 3.5 mph - N/A   Clear